TRANSIT 18 DEB, 35416

Orbit data source: Space-Track

TRANSIT 18 DEB, 35416 is space debris in LEO originally from a launch on Sat, 02 Mar 1968 UTC launched from the Air Force Western Test Range (AFWTR). Debris objects in space refer to the collection of defunct objects orbiting the Earth. Examples of debris include non-operational satellites, rocket bodies, and fragments generated from explosions, collisions, or faulty payload assembly.

Loading next visibility...
Identifier
35416, 1968-012F
Orbit
LEO
Country
Flag of USUS
Related business
Manufacturer
Unknown
Mission
Spacecraft
Bus & Motor
Unknown
Mass
Unknown
Launch date (UTC)
1968-03-02 (58 years ago)
Launch vehicle
Unknown
Launch site
Air Force Western Test Range (AFWTR)
Object type
Payload
Rocket body
Debris
Shape & HBR
Unknown shape, 0.2 m
Radar Cross Section
Medium (>0.1 m² and <1 m²)

Expand to show TLE details & history
Last TLE update: 7 hours ago

TLE from 7 hours ago
0 TRANSIT 18 DEB
1 35416U 68012F   26038.93053537  .00000841  00000-0  11222-2 0  9993
2 35416  90.0208 273.1271 0064597 268.3269 153.9247 13.58827579836980
Epoch: 2026-02-07T22:19Z
TLE epoch observation values (Epoch: 2026-02-07T22:19:58.255Z)
Latitude
62.66035°
Longitude
160.04735°
Altitude
1,093.909 km
Speed
7.29 km/s
True Right ascension
18h 12m 20s
True Declination
62° 31' 34"
Sunlit
Object was in daylight at epoch
Visualization orbit readout
Latitude
Unknown
Longitude
Unknown
Altitude
Unknown
Speed
Unknown
Apparent Right ascension
Unknown
Apparent Declination
Unknown
Sunlit
N/A
Visualization observer readout
Local Sidereal Time
07:15:36
Azimuth
Unknown
Elevation
Unknown
Doppler factor
Unknown
Orbital elements
Apogee altitude
1,084.892 km
Perigee altitude
989.093 km
Semi-major axis
7,415.13 km
Eccentricity
0.00646
Inclination
90.0208°
RAAN
273.1271°
Arg. of periapsis
268.3269°
True anomaly
154.24772°
Mean anomaly
153.9247°
Eccentric anomaly
154.08645°
Mean motion
3.39911 °/min
Orbital period
105.91 mins
BSTAR
0.0011222
Loading maneuver chart data...
Computing Atmospheric mass density...
Loading historical data...
Loading historical data...
Loading historical data...
Loading historical data...
Loading historical data...
Loading historical data...
Loading historical data...

Documentation

Showing up to 5 results
|